Regional Weather Roundup
Issued by NWS Columbia, SC

Current Version | Previous Version | Text Only | Print | Product List | Glossary On
Versions: 1 2 3 4 5 6 7 8 9 10 11 12 13 14 15 16 17 18 19 20 21 22 23 24 25 26 27 28 29 30 31 32 33 34 35 36 37 38 39 40 41 42 43 44 45 46 47 48 49 50
000
ASUS42 KCAE 262010
RWRCAE
REGIONAL WEATHER ROUNDUP
NATIONAL WEATHER SERVICE COLUMBIA SC
400 PM EDT MON JUN 26 2017

NOTE: "FAIR" INDICATES FEW OR NO CLOUDS BELOW 12,000 FEET WITH NO
SIGNIFICANT WEATHER AND/OR OBSTRUCTIONS TO VISIBILITY.

NOT ALL STATIONS ARE QUALITY CONTROLLED BY THE NATIONAL
WEATHER SERVICE. USE DATA WITH CAUTION...ESPECIALLY
DEWPOINT OBSERVATIONS.

SCZ001>056-GAZ040-063>065-077-262100-
...UPSTATE SOUTH CAROLINA...

CITY           SKY/WX    TMP DP  RH WIND       PRES   REMARKS
ANDERSON       SUNNY     83  50  31 W5        30.10F
LIBERTY        CLEAR     83  54  36 NW3       30.10F
SPARTANBURG    MOSUNNY   82  46  28 CALM      30.09F
CLEMSON        SUNNY     82  57  42 VRB3      30.11F
GREENVILLE     SUNNY     84  49  29 W9        30.10F
GREENWOOD      SUNNY     83  53  35 W5        30.11F
GREER          SUNNY     85  49  28 N7        30.08F
ROCK HILL      SUNNY     84  50  30 VRB6      30.10F
CHESTER        CLEAR     82  45  26 SW5       30.10F
LAURENS        CLEAR     82  52  34 NW6       30.09F


...CENTRAL SOUTH CAROLINA...

CITY           SKY/WX    TMP DP  RH WIND       PRES   REMARKS
COLUMBIA APT   MOSUNNY   87  53  31 N6        30.06F
COLUMBIA OWENS MOSUNNY   87  53  31 CALM      30.07F
MCENTIRE ANGB  MOSUNNY   85  53  33 S5        30.07F
ORANGEBURG     SUNNY     84  57  39 SE7       30.07F
SUMTER SHAW    SUNNY     85  53  33 CALM      30.05F
NEWBERRY       CLEAR     84  55  37 NE3       30.12F
AIKEN          FAIR      82  55  39 N3        30.12F
BARNWELL       FAIR      86  61  42 VRB7G16   30.07F
MANNING        FAIR      84  61  45 NE7G20    30.07F
CAMDEN         FAIR      86  52  30 CALM      30.07F
LANCASTER      CLEAR     84  50  30 W6        30.09F
WINNSBORO      CLEAR     84  50  30 CALM      30.08F


...EASTERN AND COASTAL SOUTH CAROLINA...

CITY           SKY/WX    TMP DP  RH WIND       PRES   REMARKS
MYRTLE BEACH   SUNNY     82  61  47 N12       30.08S
N MYRTLE BCH   CLOUDY    83  59  44 NE7       30.06F
CONWAY         FAIR      82  57  42 N7        30.07F HAZE
MARION         FAIR      82  55  39 SE7       30.06F
HARTSVILLE     FAIR      86  54  32 S3        30.06F
FLORENCE       SUNNY     86  55  34 NE7       30.06F
DARLINGTON     SUNNY     84  55  36 VRB7      30.07F
CHARLESTON APT MOSUNNY   85  66  53 E9        30.05F
MOUNT PLEASANT FAIR      84  68  58 N3        30.05F
WALTERBORO     MOCLDY    82  64  54 N10       30.07F
BEAUFORT       CLOUDY    87  70  56 NE7       30.05F


...EASTERN GEORGIA...

CITY           SKY/WX    TMP DP  RH WIND       PRES   REMARKS
AUGUSTA BUSH F MOSUNNY   88  58  36 N8        30.06F
AUGUSTA DANIEL MOSUNNY   87  54  32 E9        30.08F
THOMSON        MOSUNNY   83  59  43 CALM      30.14F
WASHINGTON     FAIR      84  61  45 CALM      30.10F
CLAXTON        FAIR      84  71  64 NW10      30.04F
SYLVANIA       PTCLDY    84  69  61 NE8       30.07F
STATESBORO     PTSUNNY   85  68  55 N12       30.05F
SAVANNAH       CLOUDY    85  71  63 NE10G22   30.04F


...SOUTHERN NORTH CAROLINA...

CITY           SKY/WX    TMP DP  RH WIND       PRES   REMARKS
CHARLOTTE      MOSUNNY   83  51  33 S5        30.09F
MONROE         SUNNY     81  48  31 CALM      30.08F
WADESBORO      CLEAR     83  50  31 S5        30.08F
ROCKINGHAM     CLEAR     84  55  36 W7        30.07F
ASHEVILLE      SUNNY     79  45  29 N16G22    30.15F

$$



USA.gov is the U.S. government's official web portal to all federal, state and local government web resources and services.